Weather Roundup
Issued by NWS

Home | Current Version | Previous Version | Graphics & Text | Print | Product List | Glossary Off
Versions: 1 2 3 4 5 6 7 8 9 10 11 12 13 14 15 16 17 18 19 20 21 22 23 24 25 26 27 28 29 30 31 32 33 34 35 36 37 38 39 40 41 42 43 44 45 46 47 48 49 50

282
NZUS93 KARX 200110
HRRWXR

CURRENT HOURLY OBSERVATIONS ACROSS
MUCH OF THE UPPER MISSISSIPPI VALLEY
NATIONAL WEATHER SERVICE LA CROSSE WI
700 PM CST THU JAN 19 2017


...SOUTHEAST MINNESOTA...


CITY           SKY/WX    TMP DP  RH WIND       PRES   REMARKS
ROCHESTER      CLOUDY    34  33  96 SE10      29.73F WCI  26
ROCHESTER/MAYO CLOUDY    36  35  96 E7        29.74F WCI  31
WINONA         CLOUDY    34  32  93 CALM      29.78F FOG
AUSTIN         CLOUDY    36  32  87 E6        29.72S WCI  31
ALBERT LEA     CLOUDY    36  34  93 SE8       29.72S WCI  29
DODGE CENTER   PTCLDY    34  32  93 CALM      29.73S
PRESTON        CLOUDY    33  32  95 E6        29.74F FOG     WCI  28
OWATONNA       CLOUDY    36  30  80 E8        29.73R WCI  29
FARIBAULT        N/A     37  34  87 E3        29.73F
$$

...ELSEWHERE IN MINNESOTA...


CITY           SKY/WX    TMP DP  RH WIND       PRES   REMARKS
MINNEAPOLIS    CLOUDY    36  31  82 SE7       29.74F WCI  30
INTNL FALLS    CLEAR     36  33  89 VRB5      29.63S WCI  32
DULUTH         CLEAR     34  32  92 SE7       29.74R WCI  28
RED WING       CLOUDY    37  32  81 SE8       29.76S WCI  31
REDWOOD FALLS  CLOUDY    35  33  92 SE3       29.68F FOG
MANKATO        MOCLDY    36  32  87 SE7       29.72F WCI  30
WORTHINGTON    FOG       35  34  96 E5        29.67F VSB 1/4 WCI  31
FAIRMONT       CLOUDY    34  34 100 SE10      29.70F FOG     WCI  26
$$

...SOUTHWEST WISCONSIN...


CITY           SKY/WX    TMP DP  RH WIND       PRES   REMARKS
LA CROSSE      CLOUDY    39  34  82 E8        29.78F WCI  33
PRAIRIE DU CHI DRIZZLE   36  35  96 CALM      29.78F
BOSCOBEL       LGT RAIN  37  35  92 NE3       29.79F FOG
LONE ROCK      LGT RAIN  36  34  92 E6        29.81F FOG     WCI  31
PLATTEVILLE    MOCLDY    35  35 100 E9        29.79R WCI  28
FORT MC COY    LGT RAIN  35  34  96 E3        29.79F
CAMP DOUGLAS   CLOUDY    36  33  89 E7        29.78F WCI  30
MAUSTON-NEW LI LGT RAIN  36  33  90 SE3       29.79F
VIROQUA        CLOUDY    34  34 100 CALM      29.77F
WIS DELLS      DRZL/FOG  34  33  96 E3        29.80F VSB 1
$$

...ELSEWHERE IN WISCONSIN...


CITY           SKY/WX    TMP DP  RH WIND       PRES   REMARKS
MILWAUKEE      LGT RAIN  36  35  96 E5        29.84F VSB 1/8 WCI  32
MADISON        LGT RAIN  35  34  96 E3        29.82F FOG
GREEN BAY      FOG       33  33 100 CALM      29.87S VSB 1/4
EAU CLAIRE     CLOUDY    37  32  82 CALM      29.78F
BLACK RVR FLS  CLOUDY    38  31  74 CALM      29.79F
MEDFORD        FOG       31  30  98 SE5       29.79F VSB 1   WCI  26
WAUSAU         CLOUDY    31  31 100 E7        29.81F FOG     WCI  24
WIS RAPIDS     CLOUDY    34  32  92 E3        29.82F
MARSHFIELD     PTCLDY    31  30  96 NE6       29.79F FOG     WCI  25
RICE LAKE      CLOUDY    37  32  84 SE5       29.79S WCI  33
$$

...NORTHEAST IOWA...


CITY           SKY/WX    TMP DP  RH WIND       PRES   REMARKS
WATERLOO       CLOUDY    37  35  92 SE12      29.73S FOG     WCI  29
DUBUQUE        MIX PCPN  36  35  96 E8        29.75F FOG     WCI  30
DECORAH        CLOUDY    36  34  93 SE5       29.74F FOG     WCI  32
MASON CITY     CLOUDY    34  33  96 SE7       29.73S FOG     WCI  28
CHARLES CITY   LGT RAIN  36  36 100 SE12      29.73R WCI  27
OELWEIN        LGT RAIN  36  36 100 E12       29.73F WCI  27
$$

...ELSEWHERE IN IOWA...


CITY           SKY/WX    TMP DP  RH WIND       PRES   REMARKS
DES MOINES     DRZL/FOG  38  37  97 E5        29.69F VSB 1/2 WCI  34
IOWA CITY      CLOUDY    39  38  96 E8        29.74F FOG     WCI  33
FORT DODGE     CLOUDY    36  34  93 E6        29.71R VSB 1/4 WCI  31
MARSHALLTOWN   FOG       35  35 100 E8        29.70F VSB 1/2 WCI  29
CEDAR RAPIDS   LGT RAIN  36  36 100 E10       29.72F FOG     WCI  28
$$

...NORTHERN ILLINOIS...


CITY           SKY/WX    TMP DP  RH WIND       PRES   REMARKS
CHICAGO-OHARE  LGT RAIN  39  37  92 SE9       29.83S FOG     WCI  33
CHICAGO-MIDWAY LGT RAIN  38  36  92 SE7       29.84S FOG     WCI  33
MOLINE         LGT RAIN  38  36  92 E9        29.75S FOG     WCI  31
ROCKFORD       LGT RAIN  39  37  92 SE3       29.82S FOG
PEORIA         CLOUDY    41  40  96 E6        29.75S
$$

NOTE: "FAIR" INDICATES FEW OR NO CLOUDS BELOW 12,000 FEET WITH NO
SIGNIFICANT WEATHER AND/OR OBSTRUCTIONS TO VISIBILITY. WIND
SPEEDS ARE IN MILES-PER-HOUR.




USA.gov is the U.S. government's official web portal to all federal, state and local government web resources and services.